Home > Weather > Carson City > Past weeks

Flag for U.S.A. Weather for the Past 2 Weeks in Carson City, Nevada, U.S.A.

Now
60 °F

Passing clouds.


Feels Like: 60 °F
Forecast: 29 / 56 °F
Wind: No wind

Location: Reno Tahoe International Airport

Current Time: Feb 13, 2016 at 1:31:03 PM

Latest Report: Feb 13, 2016 at 12:55 PM


Visibility: 10 mi

Pressure: 30.26 "Hg (25.56 "Hg at 1425m altitude)

Humidity: 19%

Dew point: 17 °F

Location of Carson CityLocation

Historic Weather in Carson City — Graph

°F

Carson City Temperature Yesterday

Maximum temperature yesterday: 65 °F (at 3:55 PM)
Minimum temperature yesterday: 35 °F (at 5:55 AM)
Average temperature yesterday: 48 °F

High & Low Weather Summary for the Past Weeks

 TemperatureHumidityPressure
High65 °F (Feb 12, 3:55 PM)92% (Jan 30, 3:55 AM)30.62 "Hg (Jan 30, 3:55 AM)
Low15 °F (Feb 2, 4:55 AM)21% (Feb 12, 4:55 PM)29.65 "Hg (Jan 31, 2:55 PM)
Average37 °F66%30.29 "Hg
* Reported Jan 29 11:55 AM — Feb 13 11:55 AM, Carson City, Weather by CustomWeather, © 2016

Note: Actual official high and low records may vary slightly from our data, if they occured in-between our weather recording intervals... More about our weather records

Advertising

Carson City Weather History for the Previous 24 Hours

 ConditionsComfort  
Time TempWeatherWind HumidityBarometerVisibility
11:55 AM
Sat, Feb 13
56 °FSunny.3 mph30%30.29 "Hg10 mi
10:55 AM53 °FSunny.No wind37%30.30 "Hg10 mi
9:55 AM48 °FSunny.6 mph41%30.32 "Hg10 mi
8:55 AM39 °FPassing clouds.3 mph60%30.34 "Hg10 mi
7:55 AM34 °FPassing clouds.3 mph73%30.33 "Hg10 mi
6:55 AM31 °FPassing clouds.3 mph76%30.29 "Hg10 mi
5:55 AM34 °FPassing clouds.3 mph70%30.27 "Hg10 mi
4:55 AM34 °FPassing clouds.No wind70%30.24 "Hg10 mi
3:55 AM36 °FPassing clouds.3 mph64%30.22 "Hg10 mi
2:55 AM40 °FPassing clouds.3 mph58%30.21 "Hg10 mi
1:55 AM40 °FPassing clouds.5 mph58%30.21 "Hg10 mi
12:55 AM42 °FPassing clouds.6 mph51%30.22 "Hg10 mi
11:55 PM
Fri, Feb 12
45 °FPassing clouds.No wind44%30.22 "Hg10 mi
10:55 PM49 °FPassing clouds.No wind36%30.22 "Hg10 mi
9:55 PM53 °FPassing clouds.14 mph30%30.21 "Hg10 mi
8:55 PM54 °FPassing clouds.No wind29%30.21 "Hg10 mi
7:55 PM56 °FPartly cloudy.12 mph27%30.20 "Hg10 mi
6:55 PM58 °FMostly cloudy.7 mph25%30.20 "Hg10 mi
5:55 PM61 °FPassing clouds.9 mph23%30.18 "Hg10 mi
4:55 PM64 °FBroken clouds.15 mph21%30.15 "Hg10 mi
3:55 PM65 °FMore clouds than sun.6 mph22%30.15 "Hg10 mi
2:55 PM64 °FBroken clouds.No wind23%30.15 "Hg10 mi
1:55 PM61 °FBroken clouds.No wind30%30.16 "Hg10 mi
Weather by CustomWeather, © 2016

See weather overviewHow to use our weather pages